Regional Weather Roundup
Issued by NWS Cleveland, OH

Home | Current Version | Previous Version | Text Only | Print | Product List | Glossary Off
Versions: 1 2 3 4 5 6 7 8 9 10 11 12 13 14 15 16 17 18 19 20 21 22 23 24 25 26 27 28 29 30 31 32 33 34 35 36 37 38 39 40 41 42 43 44 45 46 47 48 49 50

000
ASUS41 KCLE 020600
RWRCLE
OHIO REGIONAL WEATHER ROUNDUP
NATIONAL WEATHER SERVICE WILMINGTON, OH
100 AM EST MON MAR 02 2015

NOTE: "FAIR" INDICATES FEW OR NO CLOUDS BELOW 12,000 FEET WITH NO
SIGNIFICANT WEATHER AND/OR OBSTRUCTIONS TO VISIBILITY.

OHZ001>008-015>018-024>027-034-035-043-044-020700-
   NORTHWEST OHIO

CITY           SKY/WX    TMP DP  RH WIND       PRES   REMARKS
DEFIANCE       CLOUDY    23  16  74 W10G16    30.30S WCI  12
FINDLAY        CLOUDY    22  18  85 W14       30.27F WCI   9
TOLEDO EXPRESS CLOUDY    22  17  81 W12       30.26F WCI  10
TOLEDO EXEC    CLOUDY    23  16  74 W12       30.28S WCI  12
LIMA           CLOUDY    23  18  81 W17       30.29S WCI   9
$$

OHZ009>014-019>023-028>033-038-089-020700-
   NORTHEAST OHIO

CITY           SKY/WX    TMP DP  RH WIND       PRES   REMARKS
CLE-HOPKINS    CLOUDY    22  18  85 W12       30.27S WCI  10
CLE-LAKEFRONT  CLOUDY    22  18  85 W15       30.25S WCI   9
CUY CO. ARPT   NOT AVBL
LORAIN-ELYRIA  CLOUDY    22  18  85 W12G20    30.25S WCI  10
ASHTABULA      CLOUDY    22  18  85 W10G18    30.20S WCI  11
AKRON-CANTON   CLOUDY    25  19  78 NW17      30.22R HAZE    WCI  12
WOOSTER        NOT AVBL
MANSFIELD      CLOUDY    22  20  92 W14G20    30.24R WCI   9
YOUNGSTOWN     FLURRIES  25  21  85 W12       30.18R WCI  14
$$

OHZ042-051>053-060>062-070>072-077>081-020700-
  SOUTHWEST OHIO

CITY           SKY/WX    TMP DP  RH WIND       PRES   REMARKS
CINC-COVINGTON CLOUDY    31  25  78 NW16      30.34R WCI  20
CINC-LUNKEN    CLOUDY    32  26  78 NW8       30.37R WCI  25
HAMILTON       CLOUDY    30  24  78 NW15      30.36R WCI  19
DAYTON         MOCLDY    25  19  80 NW16      30.32R WCI  12
WRIGHT-PAT AFB NOT AVBL
DAYTON GENERAL CLOUDY    28  23  81 NW12      30.32R WCI  18
WILMINGTON     CLOUDY    29  24  82 W13       30.30R WCI  19
$$

OHZ036-037-039>041-045>050-054>059-063>069-073>076-082>088-020700-
  CENTRAL AND SOUTHEAST OHIO

CITY           SKY/WX    TMP DP  RH WIND       PRES   REMARKS
COLUMBUS       CLOUDY    28  24  85 W16       30.28S FOG     WCI  16
OSU AIRPORT    CLOUDY    27  22  81 NW14      30.28R HAZE    WCI  16
BOLTON FIELD   NOT AVBL
RICKENBACK AFB NOT AVBL
NEWARK         CLOUDY    30  24  78 W10       30.26S WCI  21
MARION         CLOUDY    24  20  84 NW13      30.28S WCI  12
LANCASTER      CLOUDY    31  27  85 W12       30.28S WCI  22
ZANESVILLE     CLOUDY    31  25  78 W13       30.25R WCI  21
NEW PHILLY     CLOUDY    31  24  75 W8        30.24R WCI  23
$$



USA.gov is the U.S. government's official web portal to all federal, state and local government web resources and services.